Regional Weather Roundup
Issued by NWS

Home | Current Version | Previous Version | Text Only | Print | Product List | Glossary On
Versions: 1 2 3 4 5 6 7 8 9 10 11 12 13 14 15 16 17 18 19 20 21 22 23 24 25 26 27 28 29 30 31 32 33 34 35 36 37 38 39 40 41 42 43 44 45 46 47 48 49 50
000
ASUS43 KMPX 250101
RWRMN
WEATHER ROUNDUP FOR MINNESOTA
NATIONAL WEATHER SERVICE TWIN CITIES/CHANHASSEN MN
800 PM CDT SUN JUL 24 2016


NOTE: "FAIR" INDICATES FEW OR NO CLOUDS BELOW 12,000 FEET WITH NO
SIGNIFICANT WEATHER AND/OR OBSTRUCTIONS TO VISIBILITY. N/A MEANS
CURRENT SKY AND/OR WEATHER CONDITIONS ARE NOT AVAILABLE.

MNZ060>063-068>070-250200-
   Twin Cities Metro

CITY           SKY/WX    TMP DP  RH WIND       PRES   REMARKS
TWIN CITIES    PTCLDY    79  62  56 W14       29.93S
ST PAUL        PTCLDY    79  62  56 W16       29.92S
CRYSTAL        CLEAR     79  61  53 W12       29.92S
BLAINE         PTCLDY    81  63  54 W12       29.93S
LAKEVILLE      CLEAR     75  64  69 W6        29.94S
EDEN PRAIRIE   CLEAR     80  62  54 W10       29.93S
LAKEVILLE      CLEAR     75  64  69 W6        29.94S
SOUTH ST PAUL  CLEAR     80  60  51 NW12      29.92S
LAKE ELMO      FAIR      77  63  61 W10G16    29.93F
$$
MNZ001>005-007-008-013>017-022>024-027-028-250200-
   Northwest Minnesota

CITY           SKY/WX    TMP DP  RH WIND       PRES   REMARKS
HALLOCK        MOSUNNY   75  66  73 NW5       29.89R
ROSEAU         PTCLDY    73  64  73 W9        29.88S
WARROAD        CLEAR     75  63  64 W9G16     29.87S
THIEF RVR FALL CLEAR     74  62  66 W9        29.92R
CROOKSTON      SUNNY     75  64  69 NW8       29.92S
FOSSTON        CLEAR     75  61  60 W8        29.94R
DETROIT LAKES  CLEAR     73  55  53 W9        29.97R
MOORHEAD       CLEAR     79  55  44 NW8       29.95S
PARK RAPIDS    CLEAR     75  60  59 NW14      29.94R
MAHNOMEN       FAIR      74  61  65 W8        29.94S
$$
MNZ006-009>011-018-025>026-250200-
   North Central Minnesota

CITY           SKY/WX    TMP DP  RH WIND       PRES   REMARKS
BAUDETTE       CLEAR     74  58  57 W9        29.86R
FLAG ISLAND    MOCLDY    72  61  68 NW23G29   29.86R
INTL FALLS     MOCLDY    72  59  63 W8        29.84R
WASKISH        PTCLDY    75  63  64 W14G21    29.88R
BIG FORK       CLEAR     75  57  53 W7        29.88S
LONGVILLE      CLEAR     73  63  68 W7        29.92R
GRAND RAPIDS   CLEAR     75  60  59 NW9       29.91S
CRANE LAKE     PTCLDY    73  59  60 W3        29.84S
ORR            MOCLDY    73  55  53 W6        29.83R
COOK           PTCLDY    73  61  64 W8        29.86R
WALKER         FAIR      73  60  63 W10       29.92R
$$
MNZ012-019>021-037-250200-
   Northeast Minnesota

CITY           SKY/WX    TMP DP  RH WIND       PRES   REMARKS
DULUTH         MOCLDY    75  60  59 W12       29.88R
ELY            CLEAR     73  57  56 W9G17     29.84S
HIBBING        CLEAR     73  56  54 W8G22     29.87S
EVELETH        CLEAR     75  56  51 W10G20    29.88R
DULUTH HARBOR  MOCLDY    81  64  57 W14       29.85R
TWO HARBORS    CLEAR     79  64  61 W7        29.83R
SILVER BAY     CLEAR     75  57  53 W3        29.82R
GRAND MARAIS     N/A     76  59  55 CALM      29.77R
G MARAIS ARPRT CLEAR     70  55  60 SW7       29.84R
$$
MNZ029>031-032-039>041-046>048-054>057-064-250200-
   West Central Minnesota

CITY           SKY/WX    TMP DP  RH WIND       PRES   REMARKS
FERGUS FALLS   CLEAR     73  61  64 NW7       29.98R
WHEATON        CLEAR     81  61  50 W8        29.99S
MORRIS         CLEAR     79  63  57 NW5       29.98R
ALEXANDRIA     CLEAR     76  57  51 W10       29.99R
ELBOW LAKE     FAIR      74  60  61 NW7       29.99R
WADENA         CLEAR     73  61  64 W3        29.95S
GLENWOOD       CLEAR     75  57  53 W8        29.99R
APPLETON       CLEAR     79  61  53 NW7       29.98R
BENSON         CLEAR     77  57  50 N7        29.98R
ORTONVILLE     CLEAR     79  57  47 NW5       29.99R
MADISON        CLEAR     79  63  57 NW6       29.99R
WILLMAR        FAIR      77  66  69 W6        29.99R
$$
MNZ033>034-036-042>043-049>051-058-059-250200-
   Central Minnesota

CITY           SKY/WX    TMP DP  RH WIND       PRES   REMARKS
ST CLOUD       CLEAR     78  61  55 NW12      29.93S
SAUK CENTRE    FAIR      75  59  57 W8        29.97R
PAYNESVILLE    CLEAR     75  61  61 W6        29.97S
AITKIN         CLEAR     77  55  47 W3        29.90S
PINE RIVER     CLEAR     75  61  60 W5        29.96R
BRAINERD       CLEAR     77  59  53 W9        29.93R
STAPLES        CLEAR     73  57  56 W9        29.95R
LONG PRAIRIE   FAIR      75  57  53 W8        29.97R
LITTLE FALLS   CLEAR     77  57  50 W8        29.94S
LITCHFIELD     CLEAR     79  66  65 W5        29.97S
BUFFALO        CLEAR     78  62  58 W7        29.95F
MAPLE LAKE     CLEAR     78  65  62 W5        29.95S
HUTCHINSON     PTCLDY    77  66  70 W6        29.98R
$$
MNZ037-044-045-052-053-250200-
   East Central Minnesota

CITY           SKY/WX    TMP DP  RH WIND       PRES   REMARKS
PRINCETON      CLEAR     79  64  61 SW5       29.93S
MORA           CLEAR     75  61  60 W7        29.92F
CAMBRIDGE      CLEAR     81  63  54 CALM      29.91S
RUSH CITY      CLEAR     76  62  61 W6        29.91S
MOOSE LAKE     CLEAR     73  61  64 W3        29.88R
HINCKLEY       FAIR      75  64  69 W7        29.91S
CLOQUET        PTCLDY    75  57  53 W7        29.89R
MCGREGOR       MOCLDY    75  61  60 W3        29.91R
$$
MNZ071>073-080-081-089-090-097-098-250200-
   Southwest Minnesota

CITY           SKY/WX    TMP DP  RH WIND       PRES   REMARKS
MONTEVIDEO     CLEAR     81  63  54 N5        30.00R
GRANITE FALLS  CLEAR     79  69  70 W6        30.00R
CANBY          CLEAR     79  65  62 NW6       30.01S
MARSHALL       CLEAR     77  65  66 W6        30.00S
REDWOOD FALLS  CLEAR     78  65  63 W6        29.98R
OLIVIA         CLEAR     77  64  65 W3        29.98R
PIPESTONE      CLEAR     79  59  50 W7        30.04S
WINDOM         PTCLDY    77  63  61 NW6       30.02R
WORTHINGTON    PTCLDY    75  66  73 NW6       30.04S
JACKSON        MOCLDY    75  63  64 W5        30.03S
TRACY          CLEAR     77  65  68 W3        30.01S
SLAYTON        RAIN      75  63  66 NW5       30.04S
$$
MNZ065>067-074>077-082>085-091>093-250200-
   South Central Minnesota

CITY           SKY/WX    TMP DP  RH WIND       PRES   REMARKS
MANKATO        CLEAR     75  63  64 NW9       29.98R
NEW ULM        PTCLDY    75  63  64 NW5       29.98S
ST JAMES       CLEAR     72  63  73 W5        30.00R
FAIRMONT       MOCLDY    75  54  46 W8        30.00R
GLENCOE        CLEAR     78  67  70 W8        29.96S
FARIBAULT      CLEAR     75  64  69 W7        29.96S
OWATONNA       CLOUDY    75  63  64 W6        29.97R
WASECA         CLEAR     72  64  78 NW6       29.99R
ALBERT LEA     CLOUDY    75  64  69 NW6       29.98R
$$
MNZ078>079-086>088-094>096-250200-
   Southeast Minnesota

CITY           SKY/WX    TMP DP  RH WIND       PRES   REMARKS
ROCHESTER      CLOUDY    75  66  73 W6        29.96S
RED WING       CLOUDY    81  63  54 NW7       29.89F
STANTON        CLEAR     77  64  65 NW10      29.93S
DODGE CENTER   MOCLDY    75  64  69 W8        29.97R
WINONA         CLOUDY    77  63  61 W7        29.90S
AUSTIN         CLOUDY    75  64  69 NW8       29.97R
PRESTON        PTCLDY    73  64  75 NW7       29.96R
$$
ABBREVIATIONS USED IN REMARKS
   TC - TEMPERATURES IN CELSIUS
  WCI - WIND CHILL INDEX
   HX - HEAT INDEX
  VSB - VISIBILITY
$$




USA.gov is the U.S. government's official web portal to all federal, state and local government web resources and services.